Location: Brienzwiler
(46.7508°N, 8.1014°E)
Time: 17:03:56
(UTC+00:00)

Cosmos 1408 - Pass Details

Date: 05 July 2020
Orbit: 471 x 493 km, 82.6° (Epoch: 10 August)

Event Time Altitude Azimuth Distance (km) Brightness Sun altitude
Exits shadow 21:28:58 20° 103° (ESE) 1,154 4.1 -15.2°
Maximum altitude 21:29:33 21° 89° (E) 1,127 4.1 -15.2°
Drops below altitude 10° 21:32:16 10° 39° (NE) 1,644 5.5 -15.5°
Sets 21:34:43 0° 23° (NNE) 2,527 6.8 -15.7°
